TimeCDT,TemperatureF,Dew PointF,Humidity,Sea Level PressureIn,VisibilityMPH,Wind Direction,Wind SpeedMPH,Gust SpeedMPH,PrecipitationIn,Events,Conditions,WindDirDegrees,DateUTC
12:48 AM,46.4,42.8,87,29.99,9.0,Calm,Calm,-,N/A,Rain,Light Rain,0,2013-10-19 05:48:00
12:58 AM,45.3,43.7,94,30.00,9.0,Variable,3.5,-,0.03,Rain,Rain,0,2013-10-19 05:58:00
1:08 AM,44.6,42.8,93,29.98,10.0,Variable,4.6,-,N/A,Rain,Light Rain,0,2013-10-19 06:08:00
1:18 AM,44.6,42.8,93,29.98,10.0,Variable,3.5,-,N/A,Rain,Light Rain,0,2013-10-19 06:18:00
1:48 AM,44.6,44.6,100,29.99,10.0,Variable,4.6,-,N/A,Rain,Light Rain,0,2013-10-19 06:48:00
1:53 AM,44.6,44.6,100,29.99,9.0,Variable,5.8,-,N/A,Rain,Light Rain,0,2013-10-19 06:53:00
1:58 AM,44.2,43.7,98,30.00,9.0,Variable,4.6,-,0.04,Rain,Light Rain,0,2013-10-19 06:58:00
2:08 AM,44.6,42.8,93,29.99,9.0,NW,8.1,-,N/A,Rain,Light Rain,320,2013-10-19 07:08:00
2:13 AM,44.6,42.8,93,30.00,10.0,NW,9.2,-,N/A,Rain,Light Rain,320,2013-10-19 07:13:00
2:23 AM,44.6,42.8,93,30.00,8.0,Variable,3.5,-,N/A,Rain,Rain,0,2013-10-19 07:23:00
2:28 AM,44.6,42.8,93,29.99,7.0,NW,2.3,-,N/A,Rain,Light Rain,320,2013-10-19 07:28:00
2:43 AM,44.6,42.8,93,29.99,10.0,Variable,3.5,-,N/A,Rain,Light Rain,0,2013-10-19 07:43:00
2:53 AM,44.6,42.8,93,29.99,10.0,WNW,5.8,-,N/A,Rain,Light Rain,300,2013-10-19 07:53:00
2:58 AM,43.9,43.5,99,30.00,10.0,WNW,4.6,-,0.04,Rain,Light Rain,300,2013-10-19 07:58:00
3:08 AM,44.6,42.8,93,29.99,10.0,NW,6.9,-,N/A,Rain,Light Rain,310,2013-10-19 08:08:00
3:18 AM,44.6,42.8,93,29.99,10.0,NW,8.1,-,N/A,Rain,Light Rain,310,2013-10-19 08:18:00
3:23 AM,42.8,42.8,100,29.99,10.0,NW,5.8,-,N/A,Rain,Light Rain,310,2013-10-19 08:23:00
3:38 AM,42.8,42.8,100,29.98,10.0,NW,8.1,-,N/A,Rain,Light Rain,320,2013-10-19 08:38:00
3:58 AM,43.2,43.0,99,29.99,10.0,NW,5.8,-,0.03,Rain,Light Rain,320,2013-10-19 08:58:00
4:23 AM,42.8,42.8,100,29.98,10.0,NW,5.8,-,N/A,Rain,Light Rain,320,2013-10-19 09:23:00
4:28 AM,42.8,42.8,100,29.98,9.0,NW,6.9,-,N/A,Rain,Light Rain,310,2013-10-19 09:28:00
4:33 AM,42.8,42.8,100,29.98,10.0,NW,6.9,-,N/A,Rain,Rain,320,2013-10-19 09:33:00
4:43 AM,42.8,42.8,100,29.98,10.0,NW,4.6,-,N/A,Rain,Light Rain,320,2013-10-19 09:43:00
4:58 AM,43.0,42.8,99,29.99,10.0,Variable,4.6,-,0.05,Rain,Light Rain,0,2013-10-19 09:58:00
5:03 AM,42.8,42.8,100,29.98,10.0,North,4.6,-,N/A,Rain,Light Rain,350,2013-10-19 10:03:00
5:13 AM,42.8,42.8,100,29.98,10.0,Variable,4.6,-,N/A,Rain,Light Rain,0,2013-10-19 10:13:00
5:23 AM,42.8,41.0,93,29.98,10.0,NNW,4.6,-,N/A,,Overcast,340,2013-10-19 10:23:00
5:33 AM,41.0,41.0,100,29.98,10.0,NNW,5.8,-,N/A,,Overcast,330,2013-10-19 10:33:00
5:38 AM,41.0,41.0,100,29.98,10.0,Variable,4.6,-,N/A,,Overcast,0,2013-10-19 10:38:00
5:43 AM,41.0,41.0,100,29.98,10.0,Variable,4.6,-,N/A,,Overcast,0,2013-10-19 10:43:00
5:58 AM,41.2,40.1,96,30.01,10.0,NW,6.9,-,0.01,,Mostly Cloudy,320,2013-10-19 10:58:00
6:18 AM,41.0,41.0,100,30.00,10.0,NW,6.9,-,N/A,,Overcast,320,2013-10-19 11:18:00
6:38 AM,41.0,41.0,100,30.00,10.0,WNW,5.8,-,N/A,,Overcast,300,2013-10-19 11:38:00
6:43 AM,41.0,41.0,100,30.01,10.0,NW,5.8,-,N/A,,Overcast,310,2013-10-19 11:43:00
6:48 AM,41.0,41.0,100,30.01,10.0,WNW,4.6,-,N/A,,Overcast,300,2013-10-19 11:48:00
6:58 AM,41.4,41.2,99,30.03,10.0,WNW,4.6,-,N/A,,Overcast,290,2013-10-19 11:58:00
7:13 AM,41.0,41.0,100,30.01,10.0,WNW,6.9,-,N/A,,Overcast,290,2013-10-19 12:13:00
7:58 AM,40.8,40.1,97,30.03,10.0,West,4.6,-,N/A,,Scattered Clouds,270,2013-10-19 12:58:00
8:58 AM,44.4,42.3,92,30.02,10.0,West,10.4,-,N/A,,Partly Cloudy,280,2013-10-19 13:58:00
9:08 AM,44.6,41.0,87,30.02,10.0,WNW,11.5,-,N/A,,Mostly Cloudy,290,2013-10-19 14:08:00
9:18 AM,44.6,41.0,87,30.02,10.0,West,10.4,-,N/A,,Scattered Clouds,280,2013-10-19 14:18:00
9:23 AM,44.6,41.0,87,30.02,10.0,WNW,11.5,-,N/A,,Mostly Cloudy,290,2013-10-19 14:23:00
9:43 AM,44.6,39.2,81,30.02,10.0,West,13.8,-,N/A,,Scattered Clouds,280,2013-10-19 14:43:00
9:58 AM,46.0,40.8,82,30.04,10.0,West,10.4,-,N/A,,Partly Cloudy,270,2013-10-19 14:58:00
10:58 AM,48.2,40.8,76,30.04,10.0,West,11.5,-,N/A,,Clear,280,2013-10-19 15:58:00
11:58 AM,52.0,40.1,64,30.04,10.0,West,11.5,-,N/A,,Clear,280,2013-10-19 16:58:00
12:58 PM,54.3,37.9,54,30.01,10.0,WSW,10.4,-,N/A,,Clear,250,2013-10-19 17:58:00
1:58 PM,56.5,35.1,45,29.99,10.0,West,13.8,-,N/A,,Clear,260,2013-10-19 18:58:00
2:58 PM,58.1,35.2,42,29.99,10.0,WSW,15.0,-,N/A,,Scattered Clouds,250,2013-10-19 19:58:00
3:26 PM,57.2,32.0,38,29.96,10.0,WSW,13.8,-,N/A,,Clear,240,2013-10-19 20:26:00
3:58 PM,58.3,33.6,39,29.97,10.0,West,11.5,-,N/A,,Clear,280,2013-10-19 20:58:00
4:58 PM,57.6,32.2,38,29.97,10.0,WSW,9.2,-,N/A,,Clear,250,2013-10-19 21:58:00
5:58 PM,54.9,32.9,43,29.96,10.0,WSW,9.2,-,N/A,,Clear,250,2013-10-19 22:58:00
6:58 PM,50.2,33.4,53,29.98,10.0,WSW,4.6,-,N/A,,Clear,240,2013-10-19 23:58:00
7:58 PM,47.3,34.5,61,29.99,10.0,SW,2.3,-,N/A,,Clear,220,2013-10-20 00:58:00
8:58 PM,42.4,35.8,77,30.00,10.0,SW,2.3,-,N/A,,Clear,230,2013-10-20 01:58:00
9:58 PM,44.6,36.3,73,30.01,10.0,SW,4.6,-,N/A,,Clear,220,2013-10-20 02:58:00
10:58 PM,42.4,37.0,81,30.01,10.0,SW,3.5,-,N/A,,Clear,220,2013-10-20 03:58:00
11:58 PM,41.4,37.4,86,30.00,10.0,SSW,1.2,-,N/A,,Clear,210,2013-10-20 04:58:00